Вернуться в каталог

FENGYUN 1C DEB

АктивенPO
NORAD 36203·DEBRIS·🇨🇳 China

Запущен May 10, 1999 с Taiyuan Satellite Launch Center

Loading…

Ближайшие Пролёты (ближайшие 24 часа)

TLE

СвежийSource: Space-Track

Эпоха: Sep 14, 2026, 17:04 UTC

1 36203U 99025DUC 26257.71133552  .00008623  00000-0  10026-2 0  9998
2 36203  99.1203 243.9924 0076045   3.8143 356.3631 14.83545567675142

Отслеживайте FENGYUN 1C DEB в реальном времени с AllMySat

Download on the App Store